Regional Weather Roundup
Issued by NWS Sterling, VA

Home | Current Version | Previous Version | Text Only | Print | Product List | Glossary Off
Versions: 1 2 3 4 5 6 7 8 9 10 11 12 13 14 15 16 17 18 19 20 21 22 23 24 25 26 27 28 29 30 31 32 33 34 35 36 37 38 39 40 41 42 43 44 45 46 47 48 49 50

000
ASUS41 KLWX 220710
RWRLWX

REGIONAL WEATHER ROUNDUP
NATIONAL WEATHER SERVICE BALTIMORE MD/WASHINGTON DC
300 AM EDT MON SEP 22 2014

Note: "FAIR" indicates few or no clouds below 12,000 feet
with no significant weather and/or obstructions to visibility.
 TC=TEMPERATURE CELSIUS

 * =Non NWS site. Station does not report precipitation (e.g. rain,
    snow, etc.), thunder, or fog.

DCZ001-MDZ009-015-VAZ040>042-051-053>054-220800-
WASHINGTON METRO

CITY           SKY/WX    TMP DP  RH WIND       PRES   REMARKS
WASHINGTON NAT PTCLDY    72  45  37 W15G25    29.81R
DULLES         CLEAR     64  47  53 W10       29.84R
ANDREWS AFB    CLEAR     69  47  45 NW18G26   29.81R
QUANTICO       CLEAR     69  47  45 N13G25    29.83R
COLLEGE PARK*  CLEAR     70  46  43 W6        29.81R
LEESBURG*      CLEAR     64  50  59 NW10      29.85R
MANASSAS*      CLEAR     64  48  55 NW7       29.84R
GAITHERSBURG*  CLEAR     63  46  55 W10       29.86R

$$

MDZ006>007-011-014-220800-
BALTIMORE METRO

CITY           SKY/WX    TMP DP  RH WIND       PRES   REMARKS
BWI AIRPORT    PTCLDY    66  47  50 W15       29.79R
MD SCIENCE CTR   N/A     69  47  45 MISG      29.79R
MARTIN STATE   PTCLDY    70  50  49 W10G20    29.79R
ANNAPOLIS      PTCLDY    69  49  48 VRB7      29.78R
FORT MEADE*    CLEAR     61  50  67 W6        29.82R

$$

MDZ012-015-019>023-220800-
MARYLAND EASTERN SHORE

CITY           SKY/WX    TMP DP  RH WIND       PRES   REMARKS
OCEAN CITY     CLEAR     71  61  70 NW6       29.76R
SALISBURY      PTCLDY    74  58  57 NW10      29.77R
BAY BRIDGE AP*   N/A     70  50  49 NW13G20   29.78R
CAMBRIDGE*     PTCLDY    73  50  43 NW13G18   29.77S
EASTON*        PTCLDY    73  53  48 NW5G17    29.81R

$$

MDZ017>025-220800-
SOUTHERN MARYLAND

CITY           SKY/WX    TMP DP  RH WIND       PRES   REMARKS
PATUXENT RIVER MOCLDY    73  51  46 NW12G20   29.79R
ST INIGOES     MOCLDY    73  51  46 NW7       29.79R
LEONARDTOWN*   MOCLDY    72  48  43 NW6       29.81S

$$

MDZ003>005-220800-
NORTH CENTRAL MARYLAND

CITY           SKY/WX    TMP DP  RH WIND       PRES   REMARKS
FREDERICK*     CLEAR     68  50  52 W12G24    29.85R
HAGERSTOWN APT MOCLDY    63  48  58 W16       29.83R
WESTMINSTER*   CLEAR     64  48  55 W9        29.82R

$$

MDZ501>502-220800-
WESTERN MARYLAND

CITY           SKY/WX    TMP DP  RH WIND       PRES   REMARKS
OAKLAND*       CLOUDY    50 N/A N/A W12G18    29.91S
CUMBERLAND*    CLOUDY    63  48  59 W12G20    29.91R

$$

VAZ025>031-220800-
SHENANDOAH VALLEY

CITY           SKY/WX    TMP DP  RH WIND       PRES   REMARKS
WINCHESTER*    CLEAR     63  45  51 W12G22    29.86R
STAUNTON*      CLEAR     61  44  53 W6        29.91S

$$

WVZ021-048>050-054>055-220800-
EASTERN WEST VIRGINIA PANHANDLE

CITY           SKY/WX    TMP DP  RH WIND       PRES   REMARKS
MARTINSBURG    PTCLDY    65  45  48 W17       29.85S
PETERSBURG*    CLOUDY    63  44  49 NW7       29.91S

$$

VAZ036>039-050-220800-
CENTRAL FOOTHILLS

CITY           SKY/WX    TMP DP  RH WIND       PRES   REMARKS
CHARLOTTESVILL CLEAR     66  46  48 CALM      29.87R
ORANGE*        CLEAR     64  46  52 SW3       29.87R

$$

VAZ055>057-220800-
NORTH AND CENTRAL PIEDMONT

CITY           SKY/WX    TMP DP  RH WIND       PRES   REMARKS
FREDERICKSBRG* PTCLDY    69  53  55 W8        29.82R
STAFFORD*      PTCLDY    58  55  91 CALM      29.87R

$$

NCZ024-NYZ072-PAZ021-071-VAZ022-071-220800-
OTHER REGIONAL OBSERVATIONS

CITY           SKY/WX    TMP DP  RH WIND       PRES   REMARKS
NEW YORK CITY  PTCLDY    68  57  68 VRB5      29.70R
PHILADELPHIA   PTCLDY    70  58  65 W8        29.73R
PITTSBURGH     CLOUDY    54  49  83 NW12      29.93R
ROANOKE        CLEAR     61  47  59 W5        29.95S
RICHMOND       CLOUDY    76  57  51 NW10G20   29.83R
RALEIGH        MOCLDY    70  66  87 CALM      29.89R

$$

ANZ530>537-220800-
MARINE OBSERVATIONS

STATION/POSITION TIME  TEMP    WIND        PRES
                       AIR SEA DIR/SP/G
                 (UTC) (F)     (DEG/KT/KT) (MB)
THOMAS PT LIGHT  0700   71 74  300/ 19/ 21 1009.2R
BALT KEY BRIDGE  0700   71     280/ 14/ 17 1008.6R
COVE POINT       0700   73     330/ 11/ 16 1008.4R
LEWISETTA        0700   74 75  330/  8/ 10 1008.9R
SOLOMONS ISLAND  0700      76                N/A
PINEY POINT      0700          340/ 21/ 23   N/A

$$



USA.gov is the U.S. government's official web portal to all federal, state and local government web resources and services.